Location: Korczew
(51.3586°N, 19.4491°E)
Time: 07:58:51
(UTC+00:00)

Spot 4 - Pass Details

Date: 19 May 2025
Orbit: 699 x 715 km, 98.3° (Epoch: 16 June)

Event Time Altitude Azimuth Distance (km) Brightness Sun altitude
Exits shadow 21:17:47 25° 132° (SE) 1,395 4.8 -16.5°
Maximum altitude 21:20:17 51° 69° (ENE) 886 4.3 -16.6°
Drops below altitude 10° 21:24:54 10° 354° (N) 2,187 7.6 -16.9°
Sets 21:27:13 0° 349° (N) 3,113 8.9 -17.0°
